• In France
  • List of Countries
  • For 7 days
  • Water Temperature
  • Satellite Maps
  • Weather Map
  • Weather Widgets
  • user-avatar
    Login

    Hourly Weather Neuquén

    Today, 21 June, Thursday

    Time Temperature Precipitation Wind Pressure Humidity
    00:00 +7°C° 0 mm 10 mps 734 mmHg 46%
    01:00 +7°C° 0 mm 10 mps 734 mmHg 48%
    02:00 +7°C° 0 mm 10 mps 735 mmHg 50%
    03:00 +7°C° 0 mm 10 mps 735 mmHg 52%
    04:00 +7°C° 0 mm 9 mps 735 mmHg 53%
    05:00 +6°C° 0 mm 9 mps 736 mmHg 55%
    06:00 +6°C° 0 mm 8 mps 736 mmHg 56%
    07:00 +6°C° 0 mm 8 mps 737 mmHg 58%
    08:00 +7°C° 0 mm 9 mps 737 mmHg 52%
    09:00 +10°C° 0 mm 9 mps 738 mmHg 47%
    10:00 +11°C° 0 mm 10 mps 738 mmHg 42%
    11:00 +12°C° 0 mm 10 mps 738 mmHg 40%
    12:00 +12°C° 0 mm 10 mps 737 mmHg 38%
    13:00 +13°C° 0 mm 9 mps 737 mmHg 36%
    14:00 +12°C° 0 mm 8 mps 736 mmHg 38%
    15:00 +12°C° 0 mm 8 mps 736 mmHg 39%
    16:00 +11°C° 0 mm 7 mps 736 mmHg 40%
    17:00 +11°C° 0 mm 7 mps 736 mmHg 42%
    18:00 +10°C° 0 mm 8 mps 736 mmHg 44%
    19:00 +10°C° 0 mm 8 mps 736 mmHg 46%
    20:00 +10°C° 0 mm 7 mps 735 mmHg 47%
    21:00 +9°C° 0 mm 7 mps 735 mmHg 47%
    22:00 +9°C° 0 mm 6 mps 735 mmHg 47%
    23:00 +9°C° 0 mm 6 mps 735 mmHg 48%

    Tomorrow, 22 June, Friday

    Time Temperature Precipitation Wind Pressure Humidity
    00:00 +9°C° 0 mm 5 mps 734 mmHg 48%
    01:00 +9°C° 0 mm 5 mps 734 mmHg 49%
    02:00 +8°C° 0 mm 5 mps 733 mmHg 50%
    03:00 +8°C° 0 mm 5 mps 733 mmHg 51%
    04:00 +8°C° 0 mm 5 mps 733 mmHg 52%
    05:00 +8°C° 0 mm 4 mps 732 mmHg 53%
    06:00 +7°C° 0 mm 4 mps 732 mmHg 53%
    07:00 +7°C° 0 mm 4 mps 732 mmHg 54%
    08:00 +9°C° 0 mm 5 mps 732 mmHg 49%
    09:00 +10°C° 0 mm 5 mps 732 mmHg 45%
    10:00 +11°C° 0 mm 6 mps 732 mmHg 40%
    11:00 +13°C° 0 mm 6 mps 731 mmHg 38%
    12:00 +14°C° 0 mm 7 mps 730 mmHg 36%
    13:00 +15°C° 0 mm 7 mps 729 mmHg 34%
    14:00 +14°C° 0 mm 7 mps 729 mmHg 36%
    15:00 +14°C° 0 mm 6 mps 729 mmHg 37%
    16:00 +14°C° 0 mm 6 mps 728 mmHg 39%
    17:00 +14°C° 0 mm 6 mps 728 mmHg 40%
    18:00 +12°C° 0 mm 7 mps 729 mmHg 41%
    19:00 +12°C° 0 mm 8 mps 729 mmHg 43%
    20:00 +11°C° 0 mm 7 mps 729 mmHg 45%
    21:00 +11°C° 0 mm 7 mps 729 mmHg 47%
    22:00 +10°C° 0 mm 7 mps 730 mmHg 50%
    23:00 +9°C° 0 mm 8 mps 730 mmHg 51%

    Day after tomorrow, 23 June, Saturday

    Time Temperature Precipitation Wind Pressure Humidity
    00:00 +9°C° 0 mm 8 mps 730 mmHg 53%
    01:00 +7°C° 0 mm 9 mps 731 mmHg 55%
    02:00 +7°C° 0 mm 9 mps 731 mmHg 53%
    03:00 +7°C° 0 mm 9 mps 731 mmHg 52%
    04:00 +6°C° 0 mm 10 mps 732 mmHg 51%
    05:00 +6°C° 0 mm 9 mps 733 mmHg 52%
    06:00 +6°C° 0 mm 9 mps 734 mmHg 53%
    07:00 +5°C° 0 mm 8 mps 734 mmHg 55%
    08:00 +6°C° 0 mm 8 mps 736 mmHg 52%
    09:00 +6°C° 0 mm 8 mps 737 mmHg 49%
    10:00 +6°C° 0 mm 9 mps 738 mmHg 45%
    11:00 +6°C° 0 mm 7 mps 738 mmHg 45%
    12:00 +7°C° 0 mm 5 mps 739 mmHg 44%
    13:00 +7°C° 0 mm 4 mps 739 mmHg 43%
    14:00 +8°C° 0 mm 3 mps 739 mmHg 44%
    15:00 +8°C° 0 mm 2 mps 739 mmHg 44%
    16:00 +8°C° 0 mm 2 mps 740 mmHg 45%
    17:00 +7°C° 0 mm 2 mps 740 mmHg 48%
    18:00 +6°C° 0 mm 2 mps 740 mmHg 51%
    19:00 +6°C° 0 mm 2 mps 741 mmHg 54%
    20:00 +5°C° 0 mm 3 mps 741 mmHg 55%
    21:00 +4°C° 0 mm 3 mps 741 mmHg 56%
    22:00 +4°C° 0 mm 3 mps 741 mmHg 57%
    23:00 +4°C° 0 mm 4 mps 740 mmHg 58%

    24 June, Sunday

    Time Temperature Precipitation Wind Pressure Humidity
    00:00 +4°C° 0 mm 4 mps 740 mmHg 59%
    01:00 +4°C° 0 mm 4 mps 740 mmHg 61%
    02:00 +3°C° 0 mm 3 mps 739 mmHg 61%
    03:00 +3°C° 0 mm 3 mps 739 mmHg 60%
    04:00 +3°C° 0 mm 3 mps 738 mmHg 60%
    05:00 +3°C° 0 mm 3 mps 738 mmHg 59%
    06:00 +3°C° 0 mm 3 mps 737 mmHg 57%
    07:00 +3°C° 0 mm 3 mps 737 mmHg 56%
    08:00 +5°C° 0 mm 3 mps 737 mmHg 47%
    09:00 +7°C° 0 mm 3 mps 736 mmHg 39%
    10:00 +8°C° 0 mm 4 mps 736 mmHg 31%
    11:00 +10°C° 0 mm 4 mps 735 mmHg 26%
    12:00 +10°C° 0 mm 5 mps 734 mmHg 22%
    13:00 +13°C° 0 mm 5 mps 734 mmHg 18%
    14:00 +12°C° 0 mm 5 mps 733 mmHg 20%
    15:00 +12°C° 0 mm 5 mps 733 mmHg 23%
    16:00 +10°C° 0 mm 5 mps 733 mmHg 25%
    17:00 +10°C° 0 mm 5 mps 733 mmHg 30%
    18:00 +9°C° 0 mm 6 mps 733 mmHg 35%
    19:00 +9°C° 0 mm 7 mps 734 mmHg 39%
    20:00 +9°C° 0 mm 7 mps 734 mmHg 40%
    21:00 +9°C° 0 mm 7 mps 734 mmHg 41%
    22:00 +8°C° 0 mm 7 mps 734 mmHg 41%
    23:00 +8°C° 0 mm 7 mps 734 mmHg 41%

    25 June, Monday

    Time Temperature Precipitation Wind Pressure Humidity
    00:00 +8°C° 0 mm 6 mps 734 mmHg 42%
    01:00 +8°C° 0 mm 6 mps 734 mmHg 42%
    02:00 +8°C° 0 mm 6 mps 734 mmHg 43%
    03:00 +8°C° 0 mm 6 mps 733 mmHg 44%
    04:00 +9°C° 0 mm 7 mps 733 mmHg 46%
    05:00 +8°C° 0 mm 7 mps 734 mmHg 48%
    06:00 +8°C° 0 mm 6 mps 734 mmHg 50%
    07:00 +8°C° 0 mm 6 mps 734 mmHg 52%
    08:00 +10°C° 0 mm 7 mps 734 mmHg 48%
    09:00 +11°C° 0 mm 8 mps 734 mmHg 44%
    10:00 +13°C° 0 mm 8 mps 734 mmHg 40%
    11:00 +15°C° 0 mm 9 mps 733 mmHg 37%
    12:00 +16°C° 0 mm 9 mps 732 mmHg 34%
    13:00 +17°C° 0 mm 10 mps 732 mmHg 31%
    14:00 +16°C° 0 mm 9 mps 731 mmHg 32%
    15:00 +16°C° 0 mm 8 mps 731 mmHg 33%
    16:00 +15°C° 0 mm 7 mps 730 mmHg 33%
    17:00 +14°C° 0 mm 7 mps 730 mmHg 35%
    18:00 +14°C° 0 mm 6 mps 730 mmHg 37%
    19:00 +13°C° 0 mm 6 mps 730 mmHg 39%
    20:00 +11°C° 0 mm 6 mps 730 mmHg 40%
    21:00 +12°C° 0 mm 5 mps 729 mmHg 41%
    22:00 +10°C° 0 mm 5 mps 729 mmHg 43%
    23:00 +10°C° 0 mm 5 mps 729 mmHg 41%

    26 June, Tuesday

    Time Temperature Precipitation Wind Pressure Humidity
    00:00 +10°C° 0 mm 5 mps 729 mmHg 40%
    01:00 +11°C° 0 mm 4 mps 728 mmHg 39%
    02:00 +11°C° 0 mm 4 mps 728 mmHg 40%
    03:00 +11°C° 0 mm 4 mps 728 mmHg 42%
    04:00 +11°C° 0 mm 4 mps 728 mmHg 43%
    05:00 +11°C° 0 mm 4 mps 728 mmHg 44%
    06:00 +11°C° 0 mm 4 mps 728 mmHg 46%
    07:00 +11°C° 0 mm 4 mps 728 mmHg 47%
    08:00 +12°C° 0 mm 5 mps 728 mmHg 45%
    09:00 +13°C° 0 mm 5 mps 728 mmHg 42%
    10:00 +13°C° 0 mm 5 mps 728 mmHg 40%
    11:00 +14°C° 0 mm 5 mps 727 mmHg 37%
    12:00 +15°C° 0 mm 5 mps 727 mmHg 34%
    13:00 +15°C° 0 mm 5 mps 726 mmHg 31%
    14:00 +15°C° 0 mm 4 mps 726 mmHg 30%
    15:00 +15°C° 0 mm 4 mps 726 mmHg 29%
    16:00 +14°C° 0 mm 3 mps 725 mmHg 29%
    17:00 +14°C° 0 mm 4 mps 725 mmHg 29%
    18:00 +13°C° 0 mm 4 mps 725 mmHg 29%
    19:00 +12°C° 0 mm 4 mps 725 mmHg 28%
    20:00 +12°C° 0 mm 4 mps 725 mmHg 29%
    21:00 +12°C° 0 mm 4 mps 724 mmHg 29%
    22:00 +12°C° 0 mm 4 mps 724 mmHg 29%
    23:00 +12°C° 0 mm 4 mps 724 mmHg 30%
    Show more